Location: Franzen
(48.6167°N, 15.3833°E)
Time: 13:21:34
(UTC+00:00)

Cosmos 1655 Rocket - Pass Details

Date: 03 August 2021
Orbit: 969 x 1007 km, 82.9° (Epoch: 25 September)

Event Time Altitude Azimuth Distance (km) Brightness Sun altitude
Exits shadow 21:06:43 16° 199° (SSW) 2,350 5.6 -19.1°
Maximum altitude 21:11:55 70° 281° (W) 1,069 4.3 -19.5°
Drops below altitude 10° 21:18:21 10° 5° (N) 2,796 7.2 -20.0°
Sets 21:20:55 0° 8° (N) 3,750 8.0 -20.2°
